Time,TemperatureF,DewpointF,PressureIn,WindDirection,WindDirectionDegrees,WindSpeedMPH,WindSpeedGustMPH,Humidity,HourlyPrecipIn,Conditions,Clouds,dailyrainin,SoftwareType,DateUTC
2013-05-30 00:02:00,72.0,65.0,29.87,SE,142,3.0,9.0,80,0.00,,,0.06,,2013-05-30 05:02:00,
2013-05-30 00:12:00,72.0,65.0,29.87,SE,142,3.0,9.0,80,0.00,,,0.06,,2013-05-30 05:12:00,
2013-05-30 00:22:00,72.0,66.0,29.87,SSW,198,1.0,7.0,81,0.00,,,0.06,,2013-05-30 05:22:00,
2013-05-30 00:32:00,72.0,65.0,29.87,SSW,205,3.0,8.0,80,0.00,,,0.06,,2013-05-30 05:32:00,
2013-05-30 00:42:00,72.0,65.0,29.87,SSW,205,3.0,8.0,80,0.00,,,0.06,,2013-05-30 05:42:00,
2013-05-30 00:52:00,72.0,65.0,29.88,SSW,193,3.0,7.0,80,0.00,,,0.06,,2013-05-30 05:52:00,
2013-05-30 01:01:00,72.0,65.0,29.88,SW,222,1.0,9.0,80,0.00,,,0.06,,2013-05-30 06:01:00,
2013-05-30 01:12:00,72.0,65.0,29.88,SW,222,1.0,9.0,80,0.00,,,0.06,,2013-05-30 06:12:00,
2013-05-30 01:22:00,72.0,65.0,29.87,SSE,164,3.0,8.0,80,0.00,,,0.06,,2013-05-30 06:22:00,
2013-05-30 01:32:00,72.0,65.0,29.86,SSE,163,3.0,10.0,80,0.00,,,0.06,,2013-05-30 06:32:00,
2013-05-30 01:42:00,72.0,65.0,29.86,SSE,163,3.0,10.0,80,0.00,,,0.06,,2013-05-30 06:42:00,
2013-05-30 01:52:00,72.0,65.0,29.86,South,180,3.0,8.0,80,0.00,,,0.06,,2013-05-30 06:52:00,
2013-05-30 02:01:00,71.0,65.0,29.85,SSW,198,2.0,9.0,81,0.00,,,0.06,,2013-05-30 07:01:00,
2013-05-30 02:12:00,71.0,65.0,29.85,SSW,198,2.0,9.0,81,0.00,,,0.06,,2013-05-30 07:12:00,
2013-05-30 02:22:00,71.0,65.0,29.85,SSW,213,4.0,7.0,82,0.00,,,0.06,,2013-05-30 07:22:00,
2013-05-30 02:32:00,71.0,66.0,29.85,SW,225,2.0,7.0,83,0.00,,,0.03,,2013-05-30 07:32:00,
2013-05-30 02:42:00,71.0,66.0,29.85,SW,225,2.0,7.0,83,0.00,,,0.03,,2013-05-30 07:42:00,
2013-05-30 02:52:00,70.0,65.0,29.85,South,178,2.0,8.0,83,0.00,,,0.03,,2013-05-30 07:52:00,
2013-05-30 03:02:00,70.0,65.0,29.84,SSE,157,4.0,7.0,84,0.00,,,0.03,,2013-05-30 08:02:00,
2013-05-30 03:11:00,70.0,65.0,29.84,SSE,157,4.0,7.0,84,0.00,,,0.03,,2013-05-30 08:11:00,
2013-05-30 03:21:00,70.0,65.0,29.84,SSW,196,3.0,9.0,84,0.00,,,0.03,,2013-05-30 08:21:00,
2013-05-30 03:32:00,70.0,65.0,29.84,SSW,198,1.0,8.0,83,0.00,,,0.03,,2013-05-30 08:32:00,
2013-05-30 03:42:00,70.0,65.0,29.84,SSW,198,1.0,8.0,83,0.00,,,0.03,,2013-05-30 08:42:00,
2013-05-30 03:52:00,71.0,66.0,29.84,SSW,197,4.0,9.0,83,0.00,,,0.03,,2013-05-30 08:52:00,
2013-05-30 04:01:00,71.0,66.0,29.84,South,175,4.0,11.0,83,0.00,,,0.03,,2013-05-30 09:01:00,
2013-05-30 04:11:00,71.0,66.0,29.84,South,175,4.0,11.0,83,0.00,,,0.03,,2013-05-30 09:11:00,
2013-05-30 04:21:00,71.0,66.0,29.84,South,191,1.0,10.0,83,0.00,,,0.03,,2013-05-30 09:21:00,
2013-05-30 04:33:00,70.0,65.0,29.85,SSE,166,2.0,7.0,84,0.00,,,0.03,,2013-05-30 09:33:00,
2013-05-30 04:42:00,70.0,65.0,29.85,SSE,166,2.0,7.0,84,0.00,,,0.03,,2013-05-30 09:42:00,
2013-05-30 04:53:00,70.0,65.0,29.85,South,180,3.0,7.0,84,0.00,,,0.03,,2013-05-30 09:53:00,
2013-05-30 05:03:00,70.0,65.0,29.84,SSW,208,4.0,7.0,84,0.00,,,0.03,,2013-05-30 10:03:00,
2013-05-30 05:13:00,70.0,65.0,29.84,SSW,208,4.0,7.0,84,0.00,,,0.03,,2013-05-30 10:13:00,
2013-05-30 05:23:00,70.0,65.0,29.85,WSW,249,3.0,10.0,84,0.00,,,0.03,,2013-05-30 10:23:00,
2013-05-30 05:32:00,70.0,65.0,29.85,SSW,193,4.0,11.0,85,0.00,,,0.02,,2013-05-30 10:32:00,
2013-05-30 05:42:00,70.0,65.0,29.85,SSW,193,4.0,11.0,85,0.00,,,0.02,,2013-05-30 10:42:00,
2013-05-30 05:52:00,69.0,65.0,29.85,South,179,3.0,8.0,86,0.00,,,0.02,,2013-05-30 10:52:00,
2013-05-30 06:03:00,69.0,65.0,29.84,SE,145,3.0,10.0,86,0.00,,,0.02,,2013-05-30 11:03:00,
2013-05-30 06:12:00,69.0,65.0,29.84,SE,145,3.0,10.0,86,0.00,,,0.02,,2013-05-30 11:12:00,
2013-05-30 06:22:00,69.0,64.0,29.84,SSE,167,4.0,12.0,85,0.00,,,0.02,,2013-05-30 11:22:00,
2013-05-30 06:32:00,70.0,65.0,29.84,SSW,198,5.0,13.0,85,0.00,,,0.00,,2013-05-30 11:32:00,
2013-05-30 06:42:00,70.0,65.0,29.84,SSW,198,5.0,13.0,85,0.00,,,0.00,,2013-05-30 11:42:00,
2013-05-30 06:52:00,70.0,65.0,29.84,South,182,6.0,16.0,84,0.00,,,0.00,,2013-05-30 11:52:00,
2013-05-30 07:01:00,71.0,66.0,29.84,SSW,202,6.0,15.0,83,0.00,,,0.00,,2013-05-30 12:01:00,
2013-05-30 07:11:00,71.0,66.0,29.84,SSW,202,6.0,15.0,83,0.00,,,0.00,,2013-05-30 12:11:00,
2013-05-30 07:22:00,72.0,67.0,29.84,SSW,196,4.0,12.0,83,0.00,,,0.00,,2013-05-30 12:22:00,
2013-05-30 07:32:00,72.0,66.0,29.85,SSE,159,5.0,13.0,82,0.00,,,0.00,,2013-05-30 12:32:00,
2013-05-30 07:42:00,72.0,66.0,29.85,SSE,159,5.0,13.0,82,0.00,,,0.00,,2013-05-30 12:42:00,
2013-05-30 07:52:00,73.0,67.0,29.85,SSW,194,4.0,14.0,81,0.00,,,0.00,,2013-05-30 12:52:00,
2013-05-30 08:01:00,72.0,67.0,29.85,SSW,207,6.0,14.0,83,0.00,,,0.00,,2013-05-30 13:01:00,
2013-05-30 08:11:00,72.0,67.0,29.85,SSW,207,6.0,14.0,83,0.00,,,0.00,,2013-05-30 13:11:00,
2013-05-30 08:22:00,72.0,67.0,29.85,South,189,4.0,14.0,84,0.00,,,0.00,,2013-05-30 13:22:00,
2013-05-30 08:32:00,73.0,68.0,29.85,SSW,205,6.0,14.0,83,0.00,,,0.00,,2013-05-30 13:32:00,
2013-05-30 08:42:00,73.0,68.0,29.85,SSW,205,6.0,14.0,83,0.00,,,0.00,,2013-05-30 13:42:00,
2013-05-30 08:52:00,74.0,68.0,29.85,South,187,4.0,11.0,83,0.00,,,0.00,,2013-05-30 13:52:00,
2013-05-30 09:01:00,76.0,70.0,29.85,SSE,153,7.0,17.0,81,0.00,,,0.00,,2013-05-30 14:01:00,
2013-05-30 09:11:00,76.0,70.0,29.85,SSE,153,7.0,17.0,81,0.00,,,0.00,,2013-05-30 14:11:00,
2013-05-30 09:22:00,77.0,70.0,29.85,SSW,210,5.0,20.0,78,0.00,,,0.00,,2013-05-30 14:22:00,
2013-05-30 09:32:00,77.0,70.0,29.85,SW,222,5.0,18.0,78,0.00,,,0.00,,2013-05-30 14:32:00,
2013-05-30 09:42:00,77.0,70.0,29.85,SW,222,5.0,18.0,78,0.00,,,0.00,,2013-05-30 14:42:00,
2013-05-30 09:52:00,76.0,69.0,29.85,South,190,8.0,18.0,78,0.00,,,0.00,,2013-05-30 14:52:00,
2013-05-30 10:01:00,76.0,69.0,29.84,ESE,114,5.0,13.0,80,0.00,,,0.00,,2013-05-30 15:01:00,
2013-05-30 10:11:00,76.0,69.0,29.84,ESE,114,5.0,13.0,80,0.00,,,0.00,,2013-05-30 15:11:00,
2013-05-30 10:22:00,76.0,69.0,29.83,SW,216,5.0,16.0,79,0.00,,,0.00,,2013-05-30 15:22:00,
2013-05-30 10:33:00,76.0,69.0,29.83,SW,221,9.0,22.0,79,0.00,,,0.00,,2013-05-30 15:33:00,
2013-05-30 10:42:00,76.0,69.0,29.83,SW,221,9.0,22.0,79,0.00,,,0.00,,2013-05-30 15:42:00,
2013-05-30 10:52:00,77.0,70.0,29.83,South,175,6.0,20.0,79,0.00,,,0.00,,2013-05-30 15:52:00,
2013-05-30 11:03:00,78.0,70.0,29.83,SSW,205,8.0,21.0,77,0.00,,,0.00,,2013-05-30 16:03:00,
2013-05-30 11:12:00,78.0,70.0,29.83,SSW,205,8.0,21.0,77,0.00,,,0.00,,2013-05-30 16:12:00,
2013-05-30 11:22:00,78.0,70.0,29.83,SW,216,6.0,17.0,76,0.00,,,0.00,,2013-05-30 16:22:00,
2013-05-30 11:33:00,79.0,70.0,29.83,SSW,206,7.0,15.0,75,0.00,,,0.00,,2013-05-30 16:33:00,
2013-05-30 11:42:00,79.0,70.0,29.83,SSW,206,7.0,15.0,75,0.00,,,0.00,,2013-05-30 16:42:00,
2013-05-30 11:52:00,79.0,70.0,29.84,SSW,212,9.0,18.0,74,0.00,,,0.00,,2013-05-30 16:52:00,
2013-05-30 12:02:00,79.0,70.0,29.83,SSW,200,6.0,16.0,75,0.00,,,0.00,,2013-05-30 17:02:00,
2013-05-30 12:11:00,79.0,70.0,29.83,SSW,200,6.0,16.0,75,0.00,,,0.00,,2013-05-30 17:11:00,
2013-05-30 12:22:00,78.0,70.0,29.83,SW,229,6.0,21.0,76,0.00,,,0.00,,2013-05-30 17:22:00,
2013-05-30 12:32:00,80.0,71.0,29.83,SW,223,4.0,25.0,74,0.00,,,0.00,,2013-05-30 17:32:00,
2013-05-30 12:42:00,80.0,71.0,29.83,SW,223,4.0,25.0,74,0.00,,,0.00,,2013-05-30 17:42:00,
2013-05-30 12:52:00,79.0,70.0,29.83,South,174,7.0,20.0,74,0.00,,,0.00,,2013-05-30 17:52:00,
2013-05-30 13:02:00,80.0,71.0,29.83,SW,230,7.0,22.0,73,0.00,,,0.00,,2013-05-30 18:02:00,
2013-05-30 13:11:00,80.0,71.0,29.83,SW,230,7.0,22.0,73,0.00,,,0.00,,2013-05-30 18:11:00,
2013-05-30 13:22:00,80.0,71.0,29.83,SW,228,4.0,17.0,73,0.00,,,0.00,,2013-05-30 18:22:00,
2013-05-30 13:32:00,80.0,70.0,29.83,SSW,198,8.0,23.0,72,0.00,,,0.00,,2013-05-30 18:32:00,
2013-05-30 13:42:00,80.0,70.0,29.83,SSW,198,8.0,23.0,72,0.00,,,0.00,,2013-05-30 18:42:00,
2013-05-30 13:51:00,80.0,70.0,29.82,SW,231,7.0,16.0,72,0.00,,,0.00,,2013-05-30 18:51:00,
2013-05-30 14:01:00,80.0,70.0,29.81,South,176,6.0,18.0,71,0.00,,,0.00,,2013-05-30 19:01:00,
2013-05-30 14:12:00,80.0,70.0,29.81,South,176,6.0,18.0,71,0.00,,,0.00,,2013-05-30 19:12:00,
2013-05-30 14:23:00,81.0,70.0,29.80,SW,236,6.0,20.0,70,0.00,,,0.00,,2013-05-30 19:23:00,
2013-05-30 14:32:00,82.0,70.0,29.80,South,171,6.0,19.0,68,0.00,,,0.00,,2013-05-30 19:32:00,
2013-05-30 14:42:00,82.0,70.0,29.80,South,171,6.0,19.0,68,0.00,,,0.00,,2013-05-30 19:42:00,
2013-05-30 14:52:00,81.0,69.0,29.80,South,173,9.0,21.0,68,0.00,,,0.00,,2013-05-30 19:52:00,
2013-05-30 15:01:00,81.0,71.0,29.80,SW,227,7.0,20.0,71,0.00,,,0.00,,2013-05-30 20:01:00,
2013-05-30 15:11:00,81.0,71.0,29.80,SW,227,7.0,20.0,71,0.00,,,0.00,,2013-05-30 20:11:00,
2013-05-30 15:22:00,79.0,69.0,29.80,South,190,6.0,20.0,72,0.00,,,0.00,,2013-05-30 20:22:00,
2013-05-30 15:33:00,78.0,70.0,29.79,SSW,207,4.0,19.0,77,0.00,,,0.00,,2013-05-30 20:33:00,
2013-05-30 15:42:00,78.0,70.0,29.79,SSW,207,4.0,19.0,77,0.00,,,0.00,,2013-05-30 20:42:00,
2013-05-30 15:52:00,79.0,72.0,29.78,SSW,203,4.0,11.0,79,0.01,,,0.01,,2013-05-30 20:52:00,
2013-05-30 16:01:00,80.0,71.0,29.77,South,169,4.0,16.0,74,0.01,,,0.01,,2013-05-30 21:01:00,
2013-05-30 16:11:00,80.0,71.0,29.77,South,169,4.0,16.0,74,0.01,,,0.01,,2013-05-30 21:11:00,
2013-05-30 16:22:00,79.0,70.0,29.76,South,188,3.0,13.0,75,0.01,,,0.01,,2013-05-30 21:22:00,
2013-05-30 16:33:00,71.0,62.0,29.79,South,179,8.0,20.0,74,0.08,,,0.08,,2013-05-30 21:33:00,
2013-05-30 16:43:00,71.0,62.0,29.79,South,179,8.0,20.0,74,0.08,,,0.08,,2013-05-30 21:43:00,
2013-05-30 16:53:00,69.0,66.0,29.76,SSW,213,3.0,12.0,91,0.19,,,0.20,,2013-05-30 21:53:00,
2013-05-30 17:02:00,71.0,68.0,29.74,WSW,240,3.0,10.0,91,0.19,,,0.20,,2013-05-30 22:02:00,
2013-05-30 17:12:00,71.0,68.0,29.74,WSW,240,3.0,10.0,91,0.19,,,0.20,,2013-05-30 22:12:00,
2013-05-30 17:23:00,71.0,68.0,29.73,South,190,3.0,9.0,90,0.19,,,0.20,,2013-05-30 22:23:00,
2013-05-30 17:33:00,72.0,69.0,29.74,SSW,192,2.0,7.0,89,0.11,,,0.20,,2013-05-30 22:33:00,
2013-05-30 17:42:00,72.0,69.0,29.74,SSW,192,2.0,7.0,89,0.11,,,0.20,,2013-05-30 22:42:00,
2013-05-30 17:52:00,73.0,70.0,29.74,South,177,0.0,7.0,90,0.00,,,0.20,,2013-05-30 22:52:00,
2013-05-30 18:02:00,77.0,71.0,29.73,South,184,4.0,13.0,81,0.00,,,0.20,,2013-05-30 23:02:00,
2013-05-30 18:11:00,77.0,71.0,29.73,South,184,4.0,13.0,81,0.00,,,0.20,,2013-05-30 23:11:00,
2013-05-30 18:22:00,78.0,70.0,29.73,SW,217,6.0,14.0,77,0.00,,,0.20,,2013-05-30 23:22:00,
2013-05-30 18:32:00,79.0,70.0,29.73,SW,215,6.0,19.0,74,0.00,,,0.20,,2013-05-30 23:32:00,
2013-05-30 18:41:00,79.0,70.0,29.73,SW,215,6.0,19.0,74,0.00,,,0.20,,2013-05-30 23:41:00,
2013-05-30 18:52:00,80.0,70.0,29.74,SSW,202,6.0,15.0,71,0.00,,,0.20,,2013-05-30 23:52:00,
2013-05-30 19:01:00,79.0,69.0,29.75,South,173,6.0,19.0,71,0.00,,,0.20,,2013-05-31 00:01:00,
2013-05-30 19:11:00,79.0,69.0,29.75,South,173,6.0,19.0,71,0.00,,,0.20,,2013-05-31 00:11:00,
2013-05-30 19:22:00,78.0,68.0,29.75,SSW,209,6.0,18.0,71,0.00,,,0.20,,2013-05-31 00:22:00,
2013-05-30 19:32:00,78.0,68.0,29.75,SE,138,6.0,13.0,72,0.00,,,0.20,,2013-05-31 00:32:00,
2013-05-30 19:42:00,78.0,68.0,29.75,SE,138,6.0,13.0,72,0.00,,,0.20,,2013-05-31 00:42:00,
2013-05-30 19:52:00,77.0,67.0,29.76,SSW,194,3.0,13.0,72,0.00,,,0.20,,2013-05-31 00:52:00,
2013-05-30 20:01:00,70.0,60.0,29.80,North,355,6.0,17.0,71,0.00,,,0.20,,2013-05-31 01:01:00,
2013-05-30 20:12:00,70.0,60.0,29.80,North,355,6.0,17.0,71,0.00,,,0.20,,2013-05-31 01:12:00,
2013-05-30 20:21:00,67.0,60.0,29.81,SW,233,2.0,12.0,79,0.00,,,0.20,,2013-05-31 01:21:00,
2013-05-30 20:32:00,66.0,60.0,29.83,North,11,2.0,9.0,81,0.00,,,0.20,,2013-05-31 01:32:00,
2013-05-30 20:42:00,65.0,60.0,29.83,North,5,1.0,9.0,85,0.01,,,0.21,,2013-05-31 01:42:00,
2013-05-30 20:52:00,65.0,60.0,29.83,North,5,1.0,9.0,85,0.01,,,0.21,,2013-05-31 01:52:00,
2013-05-30 21:02:00,64.0,61.0,29.82,North,355,1.0,4.0,89,0.04,,,0.24,,2013-05-31 02:02:00,
2013-05-30 21:11:00,64.0,61.0,29.82,North,355,1.0,4.0,89,0.04,,,0.24,,2013-05-31 02:11:00,
2013-05-30 21:22:00,63.0,60.0,29.82,WNW,301,0.0,2.0,91,0.07,,,0.27,,2013-05-31 02:22:00,
2013-05-30 21:32:00,63.0,61.0,29.82,WNW,302,0.0,0.0,93,0.10,,,0.30,,2013-05-31 02:32:00,
2013-05-30 21:42:00,63.0,61.0,29.82,WNW,302,0.0,0.0,93,0.10,,,0.30,,2013-05-31 02:42:00,
2013-05-30 21:51:00,63.0,61.0,29.82,ENE,71,0.0,1.0,93,0.14,,,0.35,,2013-05-31 02:51:00,
2013-05-30 22:01:00,62.0,60.0,29.84,South,173,0.0,2.0,93,0.16,,,0.40,,2013-05-31 03:01:00,
2013-05-30 22:11:00,62.0,60.0,29.84,South,173,0.0,2.0,93,0.16,,,0.40,,2013-05-31 03:11:00,
2013-05-30 22:21:00,62.0,61.0,29.88,SSW,192,3.0,7.0,95,0.36,,,0.63,,2013-05-31 03:21:00,
2013-05-30 22:33:00,62.0,61.0,29.84,North,9,0.0,2.0,95,0.39,,,0.69,,2013-05-31 03:33:00,
2013-05-30 22:43:00,62.0,61.0,29.84,North,9,0.0,2.0,95,0.39,,,0.69,,2013-05-31 03:43:00,
2013-05-30 22:53:00,62.0,61.0,29.84,South,179,0.0,3.0,95,0.33,,,0.69,,2013-05-31 03:53:00,
2013-05-30 23:02:00,63.0,62.0,29.84,SSE,161,0.0,3.0,96,0.28,,,0.69,,2013-05-31 04:02:00,
2013-05-30 23:12:00,63.0,62.0,29.84,SSE,161,0.0,3.0,96,0.28,,,0.69,,2013-05-31 04:12:00,
2013-05-30 23:22:00,63.0,62.0,29.83,South,176,0.0,4.0,96,0.05,,,0.69,,2013-05-31 04:22:00,
2013-05-30 23:33:00,63.0,62.0,29.82,South,171,1.0,3.0,96,0.00,,,0.69,,2013-05-31 04:33:00,
2013-05-30 23:42:00,63.0,62.0,29.82,South,171,1.0,3.0,96,0.00,,,0.69,,2013-05-31 04:42:00,
2013-05-30 23:53:00,63.0,62.0,29.81,South,182,3.0,6.0,96,0.00,,,0.69,,2013-05-31 04:53:00,